ONEWEB-0180 (48213 NORAD) Tracking and Keplerian Element Data

This shows tracking and keplerian element data for the satellite.

Feedback or suggestion? Click here.




ElementValue
Catalog48213
NameONEWEB-0180
Epoch Orbit193
Epoch Day173.83334491
Epoch Year2021
RAAN294.151
Inclination87.52
Eccentricity0.001019
Argument of Perigee73.9614
Mean Anonmoly56.1873
Mean Motion14.35350403
Decay Rate-0.009526
L11 48213U 21031D 21173.83334491 -.00952600 00000-0 -35382+0 0 9998
L22 48213 87.5200 294.1510 0010190 73.9614 56.1873 14.35350403 1936

Live tracking and technical data element details for ONEWEB-0180 (NORAD 48213). ONEWEB-0180 can be tracked NOW for your location showing map with azimuth and elevation plus other details from your city location.

Track the satellite on the map from your city or location and see movement details for azimuth, elevation, latitude, longitude, range, height, and movement on the map or in text.







IsCatalogInMostPopularTable: catalog: 48213, numindb: 23
Update: records affected: 1



GetName: 48213 ONEWEB-0180

Hit Count: updated at: Thu, 24 Jun 2021 03:41:31 GMT